Time,TemperatureF,DewpointF,PressureIn,WindDirection,WindDirectionDegrees,WindSpeedMPH,WindSpeedGustMPH,Humidity,HourlyPrecipIn,Conditions,Clouds,dailyrainin,SoftwareType,DateUTC
2013-03-31 00:03:00,47.0,-99.9,-100.00,SE,125,3.0,5.0,56,0.00,,,-99.99,,2013-03-31 04:03:00,
2013-03-31 00:13:00,47.0,32.0,-100.00,ESE,120,3.0,5.0,55,0.00,,,-99.99,,2013-03-31 04:13:00,
2013-03-31 00:23:00,46.0,31.0,-100.00,SE,135,2.0,4.0,55,0.00,,,-99.99,,2013-03-31 04:23:00,
2013-03-31 00:33:00,46.0,31.0,-100.00,SE,130,2.0,4.0,55,0.00,,,-99.99,,2013-03-31 04:33:00,
2013-03-31 00:42:00,46.0,31.0,-100.00,SE,125,2.0,4.0,54,0.00,,,-99.99,,2013-03-31 04:42:00,
2013-03-31 00:52:00,46.0,30.0,-100.00,SE,130,3.0,6.0,52,0.00,,,-99.99,,2013-03-31 04:52:00,
2013-03-31 01:02:00,46.0,30.0,-100.00,SE,130,2.0,6.0,52,0.00,,,-99.99,,2013-03-31 05:02:00,
2013-03-31 01:12:00,45.0,29.0,-100.00,ESE,120,3.0,6.0,53,0.00,,,-99.99,,2013-03-31 05:12:00,
2013-03-31 01:22:00,45.0,29.0,-100.00,SE,135,2.0,6.0,52,0.00,,,-99.99,,2013-03-31 05:22:00,
2013-03-31 01:32:00,45.0,29.0,-100.00,SE,125,2.0,4.0,53,0.00,,,-99.99,,2013-03-31 05:32:00,
2013-03-31 01:42:00,45.0,29.0,-100.00,SE,125,2.0,4.0,53,0.00,,,-99.99,,2013-03-31 05:42:00,
2013-03-31 01:52:00,44.0,29.0,-100.00,SE,125,1.0,2.0,53,0.00,,,-99.99,,2013-03-31 05:52:00,
2013-03-31 02:02:00,44.0,28.0,-100.00,SE,130,0.0,1.0,52,0.00,,,-99.99,,2013-03-31 06:02:00,
2013-03-31 02:12:00,44.0,29.0,-100.00,ESE,120,0.0,0.0,55,0.00,,,-99.99,,2013-03-31 06:12:00,
2013-03-31 02:22:00,43.0,30.0,-100.00,SE,135,1.0,3.0,58,0.00,,,-99.99,,2013-03-31 06:22:00,
2013-03-31 02:33:00,42.0,30.0,-100.00,SE,140,1.0,2.0,61,0.00,,,-99.99,,2013-03-31 06:33:00,
2013-03-31 02:42:00,42.0,30.0,-100.00,ESE,115,1.0,3.0,63,0.00,,,-99.99,,2013-03-31 06:42:00,
2013-03-31 02:52:00,42.0,30.0,-100.00,SE,125,1.0,3.0,63,0.00,,,-99.99,,2013-03-31 06:52:00,
2013-03-31 03:02:00,42.0,30.0,-100.00,ESE,120,1.0,4.0,63,0.00,,,-99.99,,2013-03-31 07:02:00,
2013-03-31 03:12:00,41.0,30.0,-100.00,SE,125,0.0,0.0,63,0.00,,,-99.99,,2013-03-31 07:12:00,
2013-03-31 03:22:00,41.0,30.0,-100.00,SE,140,1.0,4.0,64,0.00,,,-99.99,,2013-03-31 07:22:00,
2013-03-31 03:33:00,41.0,30.0,-100.00,South,175,1.0,4.0,65,0.00,,,-99.99,,2013-03-31 07:33:00,
2013-03-31 03:42:00,41.0,30.0,-100.00,SSE,160,1.0,3.0,65,0.00,,,-99.99,,2013-03-31 07:42:00,
2013-03-31 03:52:00,40.0,30.0,-100.00,SSW,205,1.0,1.0,65,0.00,,,-99.99,,2013-03-31 07:52:00,
2013-03-31 04:02:00,40.0,30.0,-100.00,SSE,160,1.0,2.0,65,0.00,,,-99.99,,2013-03-31 08:02:00,
2013-03-31 04:12:00,40.0,30.0,-100.00,South,190,1.0,2.0,65,0.00,,,-99.99,,2013-03-31 08:12:00,
2013-03-31 04:22:00,40.0,30.0,-100.00,South,190,2.0,4.0,65,0.00,,,-99.99,,2013-03-31 08:22:00,
2013-03-31 04:32:00,40.0,30.0,-100.00,South,190,0.0,3.0,65,0.00,,,-99.99,,2013-03-31 08:32:00,
2013-03-31 04:42:00,40.0,29.0,-100.00,SE,140,0.0,2.0,65,0.00,,,-99.99,,2013-03-31 08:42:00,
2013-03-31 04:52:00,40.0,29.0,-100.00,SE,140,0.0,1.0,66,0.00,,,-99.99,,2013-03-31 08:52:00,
2013-03-31 05:02:00,39.0,29.0,-100.00,SE,145,0.0,0.0,68,0.00,,,-99.99,,2013-03-31 09:02:00,
2013-03-31 05:12:00,39.0,30.0,-100.00,South,185,0.0,0.0,70,0.00,,,-99.99,,2013-03-31 09:12:00,
2013-03-31 05:22:00,38.0,31.0,-100.00,SSE,155,0.0,0.0,73,0.00,,,-99.99,,2013-03-31 09:22:00,
2013-03-31 05:33:00,38.0,31.0,-100.00,SE,140,0.0,0.0,75,0.00,,,-99.99,,2013-03-31 09:33:00,
2013-03-31 05:42:00,38.0,31.0,-100.00,SSE,165,0.0,1.0,77,0.00,,,-99.99,,2013-03-31 09:42:00,
2013-03-31 05:53:00,37.0,31.0,-100.00,SE,135,1.0,2.0,79,0.00,,,-99.99,,2013-03-31 09:53:00,
2013-03-31 06:03:00,37.0,31.0,-100.00,SE,125,1.0,3.0,80,0.00,,,-99.99,,2013-03-31 10:03:00,
2013-03-31 06:13:00,37.0,32.0,-100.00,SSE,155,0.0,2.0,82,0.00,,,-99.99,,2013-03-31 10:13:00,
2013-03-31 06:24:00,36.0,32.0,-100.00,SE,145,0.0,1.0,84,0.00,,,-99.99,,2013-03-31 10:24:00,
2013-03-31 06:33:00,36.0,32.0,-100.00,South,170,1.0,4.0,85,0.00,,,-99.99,,2013-03-31 10:33:00,
2013-03-31 06:42:00,36.0,32.0,-100.00,South,175,1.0,3.0,85,0.00,,,-99.99,,2013-03-31 10:42:00,
2013-03-31 06:53:00,36.0,32.0,-100.00,SE,130,0.0,4.0,86,0.00,,,-99.99,,2013-03-31 10:53:00,
2013-03-31 07:03:00,36.0,33.0,-100.00,SSE,165,1.0,4.0,87,0.00,,,-99.99,,2013-03-31 11:03:00,
2013-03-31 07:12:00,37.0,34.0,-100.00,SE,135,2.0,4.0,88,0.00,,,-99.99,,2013-03-31 11:12:00,
2013-03-31 07:23:00,37.0,34.0,-100.00,SSE,165,2.0,5.0,87,0.00,,,-99.99,,2013-03-31 11:23:00,
2013-03-31 07:33:00,38.0,35.0,-100.00,SSE,150,2.0,4.0,87,0.00,,,-99.99,,2013-03-31 11:33:00,
2013-03-31 07:42:00,38.0,34.0,-100.00,SE,135,2.0,4.0,83,0.00,,,-99.99,,2013-03-31 11:42:00,
2013-03-31 07:52:00,39.0,34.0,-100.00,SE,140,2.0,4.0,81,0.00,,,-99.99,,2013-03-31 11:52:00,
2013-03-31 08:03:00,39.0,33.0,-100.00,SE,130,2.0,4.0,79,0.00,,,-99.99,,2013-03-31 12:03:00,
2013-03-31 08:12:00,40.0,34.0,-100.00,SSE,165,1.0,6.0,77,0.00,,,-99.99,,2013-03-31 12:12:00,
2013-03-31 08:22:00,41.0,33.0,-100.00,South,175,2.0,5.0,73,0.00,,,-99.99,,2013-03-31 12:22:00,
2013-03-31 08:33:00,42.0,33.0,-100.00,South,175,2.0,6.0,69,0.00,,,-99.99,,2013-03-31 12:33:00,
2013-03-31 08:42:00,43.0,33.0,-100.00,SSW,200,6.0,9.0,65,0.00,,,-99.99,,2013-03-31 12:42:00,
2013-03-31 08:52:00,43.0,32.0,-100.00,South,170,4.0,10.0,64,0.00,,,-99.99,,2013-03-31 12:52:00,
2013-03-31 09:02:00,44.0,32.0,-100.00,SSW,195,4.0,9.0,63,0.00,,,-99.99,,2013-03-31 13:02:00,
2013-03-31 09:12:00,44.0,33.0,-100.00,SSW,200,4.0,8.0,63,0.00,,,-99.99,,2013-03-31 13:12:00,
2013-03-31 09:22:00,44.0,33.0,-100.00,South,175,4.0,10.0,64,0.00,,,-99.99,,2013-03-31 13:22:00,
2013-03-31 09:32:00,45.0,34.0,-100.00,SSW,195,6.0,11.0,64,0.00,,,-99.99,,2013-03-31 13:32:00,
2013-03-31 09:42:00,45.0,34.0,-100.00,South,190,6.0,11.0,65,0.00,,,-99.99,,2013-03-31 13:42:00,
2013-03-31 09:52:00,46.0,35.0,-100.00,South,185,2.0,9.0,66,0.00,,,-99.99,,2013-03-31 13:52:00,
2013-03-31 10:02:00,46.0,36.0,-100.00,SSW,205,4.0,8.0,66,0.00,,,-99.99,,2013-03-31 14:02:00,
2013-03-31 10:12:00,47.0,36.0,-100.00,SSW,200,6.0,9.0,67,0.00,,,-99.99,,2013-03-31 14:12:00,
2013-03-31 10:22:00,47.0,37.0,-100.00,South,170,4.0,7.0,68,0.00,,,-99.99,,2013-03-31 14:22:00,
2013-03-31 10:33:00,47.0,38.0,-100.00,South,170,5.0,7.0,68,0.00,,,-99.99,,2013-03-31 14:33:00,
2013-03-31 10:42:00,48.0,38.0,-100.00,SSW,195,4.0,7.0,69,0.00,,,-99.99,,2013-03-31 14:42:00,
2013-03-31 10:52:00,49.0,39.0,-100.00,SE,135,4.0,9.0,68,0.00,,,-99.99,,2013-03-31 14:52:00,
2013-03-31 11:03:00,49.0,39.0,-100.00,SW,215,6.0,9.0,68,0.00,,,-99.99,,2013-03-31 15:03:00,
2013-03-31 11:13:00,49.0,39.0,-100.00,South,185,5.0,11.0,67,0.00,,,-99.99,,2013-03-31 15:13:00,
2013-03-31 11:22:00,50.0,40.0,-100.00,SSW,210,4.0,10.0,67,0.00,,,-99.99,,2013-03-31 15:22:00,
2013-03-31 11:33:00,50.0,39.0,-100.00,South,190,6.0,10.0,66,0.00,,,-99.99,,2013-03-31 15:33:00,
2013-03-31 11:43:00,51.0,40.0,-100.00,South,185,6.0,10.0,65,0.00,,,-99.99,,2013-03-31 15:43:00,
2013-03-31 11:53:00,51.0,40.0,-100.00,SSW,195,6.0,11.0,65,0.00,,,-99.99,,2013-03-31 15:53:00,
2013-03-31 12:03:00,50.0,40.0,-100.00,SSW,205,5.0,10.0,66,0.00,,,-99.99,,2013-03-31 16:03:00,
2013-03-31 12:13:00,50.0,40.0,-100.00,SSW,200,7.0,12.0,69,0.00,,,-99.99,,2013-03-31 16:13:00,
2013-03-31 12:23:00,50.0,40.0,-100.00,SSW,200,7.0,11.0,70,0.00,,,-99.99,,2013-03-31 16:23:00,
2013-03-31 12:33:00,50.0,41.0,-100.00,South,185,5.0,11.0,70,0.00,,,-99.99,,2013-03-31 16:33:00,
2013-03-31 12:43:00,50.0,41.0,-100.00,SSW,195,5.0,14.0,70,0.00,,,-99.99,,2013-03-31 16:43:00,
2013-03-31 12:53:00,50.0,41.0,-100.00,South,180,6.0,13.0,70,0.00,,,-99.99,,2013-03-31 16:53:00,
2013-03-31 13:03:00,50.0,42.0,-100.00,SW,215,6.0,12.0,73,0.00,,,-99.99,,2013-03-31 17:03:00,
2013-03-31 13:12:00,50.0,43.0,-100.00,SW,235,5.0,12.0,76,0.00,,,-99.99,,2013-03-31 17:12:00,
2013-03-31 13:23:00,49.0,43.0,-100.00,SW,235,3.0,9.0,79,0.00,,,-99.99,,2013-03-31 17:23:00,
2013-03-31 13:32:00,49.0,44.0,-100.00,SW,225,4.0,11.0,80,0.00,,,-99.99,,2013-03-31 17:32:00,
2013-03-31 13:43:00,50.0,44.0,-100.00,WSW,245,4.0,7.0,81,0.00,,,-99.99,,2013-03-31 17:43:00,
2013-03-31 13:52:00,49.0,44.0,-100.00,SW,230,4.0,11.0,82,0.00,,,-99.99,,2013-03-31 17:52:00,
2013-03-31 14:03:00,49.0,44.0,-100.00,West,265,4.0,10.0,82,0.00,,,-99.99,,2013-03-31 18:03:00,
2013-03-31 14:13:00,49.0,44.0,-100.00,SW,220,4.0,11.0,82,0.00,,,-99.99,,2013-03-31 18:13:00,
2013-03-31 14:22:00,49.0,45.0,-100.00,WSW,245,4.0,8.0,82,0.00,,,-99.99,,2013-03-31 18:22:00,
2013-03-31 14:33:00,50.0,45.0,-100.00,SW,220,5.0,13.0,82,0.00,,,-99.99,,2013-03-31 18:33:00,
2013-03-31 14:42:00,49.0,45.0,-100.00,SSW,210,6.0,14.0,82,0.00,,,-99.99,,2013-03-31 18:42:00,
2013-03-31 14:52:00,49.0,45.0,-100.00,SW,215,2.0,15.0,83,0.00,,,-99.99,,2013-03-31 18:52:00,
2013-03-31 15:03:00,49.0,45.0,-100.00,SW,215,4.0,12.0,84,0.00,,,-99.99,,2013-03-31 19:03:00,
2013-03-31 15:12:00,49.0,45.0,-100.00,WSW,245,5.0,13.0,85,0.00,,,-99.99,,2013-03-31 19:12:00,
2013-03-31 15:22:00,49.0,45.0,-100.00,SW,235,4.0,11.0,86,0.00,,,-99.99,,2013-03-31 19:22:00,
2013-03-31 15:33:00,50.0,46.0,-100.00,SW,235,4.0,10.0,87,0.00,,,-99.99,,2013-03-31 19:33:00,
2013-03-31 15:43:00,51.0,47.0,-100.00,SSW,200,3.0,12.0,87,0.00,,,-99.99,,2013-03-31 19:43:00,
2013-03-31 15:53:00,51.0,47.0,-100.00,SSW,210,6.0,13.0,85,0.00,,,-99.99,,2013-03-31 19:53:00,
2013-03-31 16:03:00,53.0,47.0,-100.00,SSW,200,5.0,12.0,80,0.00,,,-99.99,,2013-03-31 20:03:00,
2013-03-31 16:12:00,54.0,46.0,-100.00,WSW,245,6.0,16.0,73,0.00,,,-99.99,,2013-03-31 20:12:00,
2013-03-31 16:23:00,54.0,44.0,-100.00,SW,220,6.0,16.0,69,0.00,,,-99.99,,2013-03-31 20:23:00,
2013-03-31 16:34:00,55.0,44.0,-100.00,SSW,205,6.0,17.0,65,0.00,,,-99.99,,2013-03-31 20:34:00,
2013-03-31 16:43:00,55.0,42.0,-100.00,WSW,240,10.0,16.0,61,0.00,,,-99.99,,2013-03-31 20:43:00,
2013-03-31 16:52:00,55.0,41.0,-100.00,SSW,205,8.0,17.0,59,0.00,,,-99.99,,2013-03-31 20:52:00,
2013-03-31 17:03:00,56.0,42.0,-100.00,SSW,200,6.0,13.0,59,0.00,,,-99.99,,2013-03-31 21:03:00,
2013-03-31 17:12:00,57.0,41.0,-100.00,SW,220,7.0,14.0,55,0.00,,,-99.99,,2013-03-31 21:12:00,
2013-03-31 17:22:00,57.0,40.0,-100.00,WSW,240,5.0,13.0,53,0.00,,,-99.99,,2013-03-31 21:22:00,
2013-03-31 17:34:00,58.0,40.0,-100.00,SW,230,5.0,11.0,50,0.00,,,-99.99,,2013-03-31 21:34:00,
2013-03-31 17:43:00,58.0,39.0,-100.00,WSW,245,6.0,11.0,47,0.00,,,-99.99,,2013-03-31 21:43:00,
2013-03-31 17:53:00,59.0,38.0,-100.00,WSW,250,4.0,14.0,45,0.00,,,-99.99,,2013-03-31 21:53:00,
2013-03-31 18:04:00,59.0,37.0,-100.00,SW,220,6.0,13.0,44,0.00,,,-99.99,,2013-03-31 22:04:00,
2013-03-31 18:13:00,59.0,37.0,-100.00,WSW,240,4.0,14.0,44,0.00,,,-99.99,,2013-03-31 22:13:00,
2013-03-31 18:23:00,58.0,36.0,-100.00,SSW,205,4.0,16.0,43,0.00,,,-99.99,,2013-03-31 22:23:00,
2013-03-31 18:33:00,57.0,36.0,-100.00,SSW,200,7.0,15.0,44,0.00,,,-99.99,,2013-03-31 22:33:00,
2013-03-31 18:42:00,58.0,36.0,-100.00,SW,225,5.0,12.0,44,0.00,,,-99.99,,2013-03-31 22:42:00,
2013-03-31 18:53:00,57.0,36.0,-100.00,SSW,200,3.0,11.0,45,0.00,,,-99.99,,2013-03-31 22:53:00,
2013-03-31 19:03:00,56.0,36.0,-100.00,SW,220,4.0,11.0,46,0.00,,,-99.99,,2013-03-31 23:03:00,
2013-03-31 19:13:00,57.0,37.0,-100.00,South,190,3.0,9.0,46,0.00,,,-99.99,,2013-03-31 23:13:00,
2013-03-31 19:22:00,57.0,37.0,-100.00,SSW,210,4.0,12.0,46,0.00,,,-99.99,,2013-03-31 23:22:00,
2013-03-31 19:32:00,56.0,36.0,-100.00,SW,215,6.0,12.0,46,0.00,,,-99.99,,2013-03-31 23:32:00,
2013-03-31 19:42:00,56.0,36.0,-100.00,SW,220,7.0,14.0,46,0.00,,,-99.99,,2013-03-31 23:42:00,
2013-03-31 19:53:00,55.0,36.0,-100.00,South,190,4.0,13.0,48,0.00,,,-99.99,,2013-03-31 23:53:00,
2013-03-31 20:02:00,55.0,36.0,-100.00,SSW,210,5.0,11.0,49,0.00,,,-99.99,,2013-04-01 00:02:00,
2013-03-31 20:13:00,55.0,37.0,-100.00,SSW,200,6.0,12.0,49,0.00,,,-99.99,,2013-04-01 00:13:00,
2013-03-31 20:22:00,55.0,36.0,-100.00,SSW,195,5.0,13.0,49,0.00,,,-99.99,,2013-04-01 00:22:00,
2013-03-31 20:32:00,55.0,36.0,-100.00,SW,220,7.0,14.0,49,0.00,,,-99.99,,2013-04-01 00:32:00,
2013-03-31 20:43:00,54.0,37.0,-100.00,SW,235,4.0,15.0,51,0.00,,,-99.99,,2013-04-01 00:43:00,
2013-03-31 20:52:00,53.0,36.0,-100.00,SW,215,4.0,13.0,51,0.00,,,-99.99,,2013-04-01 00:52:00,
2013-03-31 21:03:00,53.0,36.0,-100.00,SSW,205,4.0,8.0,52,0.00,,,-99.99,,2013-04-01 01:03:00,
2013-03-31 21:12:00,52.0,37.0,-100.00,SSW,210,2.0,9.0,54,0.00,,,-99.99,,2013-04-01 01:12:00,
2013-03-31 21:23:00,52.0,37.0,-100.00,SW,225,5.0,10.0,56,0.00,,,-99.99,,2013-04-01 01:23:00,
2013-03-31 21:33:00,52.0,37.0,-100.00,SSW,195,4.0,9.0,57,0.00,,,-99.99,,2013-04-01 01:33:00,
2013-03-31 21:42:00,52.0,38.0,-100.00,WSW,250,10.0,20.0,58,0.55,,,-99.99,,2013-04-01 01:42:00,
2013-03-31 21:52:00,50.0,39.0,-100.00,West,265,12.0,21.0,66,2.83,,,-99.99,,2013-04-01 01:52:00,
2013-03-31 22:03:00,50.0,40.0,-100.00,SSW,210,9.0,24.0,68,1.10,,,-99.99,,2013-04-01 02:03:00,
2013-03-31 22:13:00,49.0,41.0,-100.00,SW,215,6.0,20.0,72,0.00,,,-99.99,,2013-04-01 02:13:00,
2013-03-31 22:23:00,49.0,42.0,-100.00,SSW,205,4.0,12.0,74,0.00,,,-99.99,,2013-04-01 02:23:00,
2013-03-31 22:33:00,49.0,42.0,-100.00,SSW,205,2.0,7.0,76,0.00,,,-99.99,,2013-04-01 02:33:00,
2013-03-31 22:42:00,49.0,42.0,-100.00,SSW,205,4.0,9.0,78,0.00,,,-99.99,,2013-04-01 02:42:00,
2013-03-31 22:52:00,48.0,42.0,-100.00,SSW,205,4.0,7.0,79,0.00,,,-99.99,,2013-04-01 02:52:00,
2013-03-31 23:03:00,48.0,42.0,-100.00,SW,215,4.0,9.0,80,0.00,,,-99.99,,2013-04-01 03:03:00,
2013-03-31 23:12:00,49.0,42.0,-100.00,SSW,195,6.0,10.0,78,0.00,,,-99.99,,2013-04-01 03:12:00,
2013-03-31 23:22:00,49.0,42.0,-100.00,SSW,210,7.0,12.0,74,0.00,,,-99.99,,2013-04-01 03:22:00,
2013-03-31 23:34:00,50.0,42.0,-100.00,WSW,250,6.0,14.0,74,0.00,,,-99.99,,2013-04-01 03:34:00,
2013-03-31 23:43:00,49.0,42.0,-100.00,SSW,210,6.0,13.0,74,0.00,,,-99.99,,2013-04-01 03:43:00,
2013-03-31 23:53:00,49.0,42.0,-100.00,WSW,240,4.0,11.0,74,0.00,,,-99.99,,2013-04-01 03:53:00,